Location: Observatoire de Paris
(48.8363°N, 2.3365°E)
Time: 05:25:08
(UTC+01:00)

Transit 2A - All Passes

Search period start: 06 August 2021 00:00
Search period end: 16 August 2021 00:00
Orbit: 598 x 961 km, 66.7° (Epoch: 05 August)

Date Brightness Start Highest point End Pass type
(mag) Time Alt. Az. Time Alt. Az. Time Alt. Az.
06 Aug - 05:07:49 10° SSE 05:11:23 24° ESE 05:15:08 10° ENE daylight
06 Aug - 06:49:50 10° SW 06:54:11 50° NW 06:58:55 10° NNE daylight
06 Aug - 08:35:52 10° WNW 08:38:37 15° NNW 08:41:29 10° NNE daylight
06 Aug - 10:23:12 10° N 10:24:07 10° N 10:25:03 10° NNE daylight
06 Aug - 12:05:43 10° NNW 12:09:27 19° NNE 12:13:27 10° ENE daylight
06 Aug - 13:48:15 10° NNW 13:53:39 63° NE 13:59:33 10° SE daylight
06 Aug - 15:31:54 10° NW 15:36:35 28° WSW 15:41:35 10° SSW daylight
07 Aug - 04:34:37 10° SSE 04:37:26 17° ESE 04:40:21 10° ENE visible
07 Aug - 06:15:28 10° SW 06:19:55 70° NW 06:24:45 10° NNE daylight
07 Aug - 08:00:51 10° WNW 08:04:03 18° NNW 08:07:27 10° NNE daylight
07 Aug - 09:48:36 10° N 09:49:25 10° N 09:50:16 10° N daylight
07 Aug - 11:31:39 10° NNW 11:34:55 16° NNE 11:38:21 10° ENE daylight
07 Aug - 13:14:07 10° NNW 13:19:21 48° NE 13:25:05 10° ESE daylight
07 Aug - 14:57:25 10° NW 15:02:31 38° WSW 15:08:02 10° S daylight
08 Aug - 04:02:21 10° ESE 04:03:32 11° ESE 04:04:44 10° E visible
08 Aug - 05:41:16 10° SSW 05:45:42 83° SE 05:50:32 10° NE daylight
08 Aug - 07:25:57 10° W 07:29:33 22° NNW 07:33:24 10° NNE daylight
08 Aug - 09:13:34 10° NNW 09:14:45 11° N 09:15:58 10° N daylight
08 Aug - 10:57:36 10° NNW 11:00:19 14° NNE 11:03:10 10° NE daylight
08 Aug - 12:40:01 10° NNW 12:45:01 37° NE 12:50:27 10° ESE daylight
08 Aug - 14:23:02 10° NW 14:28:25 52° WSW 14:34:15 10° SSE daylight
09 Aug - 05:07:13 10° SSW 05:11:33 57° ESE 05:16:16 10° NE daylight
09 Aug - 06:51:10 10° W 06:55:05 27° NW 06:59:19 10° NNE daylight
09 Aug - 08:38:23 10° NNW 08:40:05 12° NNW 08:41:49 10° N daylight
09 Aug - 10:23:31 10° N 10:25:42 12° NNE 10:27:57 10° NE daylight
09 Aug - 12:05:55 10° NNW 12:10:37 30° NE 12:15:43 10° E daylight
09 Aug - 13:48:46 10° NW 13:54:16 71° WSW 14:00:17 10° SSE daylight
09 Aug - 15:34:00 10° WNW 15:36:41 14° WSW 15:39:29 10° SW daylight
10 Aug - 04:33:22 10° S 04:37:29 38° ESE 04:41:54 10° NE visible
10 Aug - 06:16:30 10° WSW 06:20:40 35° NW 06:25:13 10° NNE daylight
10 Aug - 08:03:13 10° NW 08:05:26 13° NNW 08:07:46 10° N daylight
10 Aug - 09:49:23 10° N 09:51:02 11° N 09:52:44 10° NNE daylight
10 Aug - 11:31:50 10° NNW 11:36:11 24° NE 11:40:50 10° E daylight
10 Aug - 13:14:32 10° NW 13:20:04 87° NE 13:26:08 10° SE daylight
10 Aug - 14:58:49 10° WNW 15:02:45 19° WSW 15:06:52 10° SSW daylight
11 Aug - 03:59:46 10° SSE 04:03:28 26° ESE 04:07:24 10° NE visible
11 Aug - 05:41:58 10° WSW 05:46:20 47° NW 05:51:06 10° NNE daylight
11 Aug - 07:28:06 10° WNW 07:30:50 15° NNW 07:33:42 10° NNE daylight
11 Aug - 09:15:08 10° N 09:16:22 11° N 09:17:37 10° NNE daylight
11 Aug - 10:57:46 10° NNW 11:01:41 20° NNE 11:05:52 10° ENE daylight
11 Aug - 12:40:22 10° NNW 12:45:50 67° NE 12:51:50 10° SE daylight
11 Aug - 14:24:06 10° NW 14:28:45 27° WSW 14:33:40 10° SSW daylight
12 Aug - 03:26:28 10° SSE 03:29:30 18° ESE 03:32:41 10° ENE visible
12 Aug - 05:07:35 10° SW 05:12:02 66° NW 05:16:56 10° NNE daylight
12 Aug - 06:53:04 10° WNW 06:56:16 18° NNW 06:59:39 10° NNE daylight
12 Aug - 08:40:35 10° NNW 08:41:40 11° N 08:42:47 10° NNE daylight
12 Aug - 10:23:42 10° NNW 10:27:09 17° NNE 10:30:47 10° ENE daylight
12 Aug - 12:06:13 10° NNW 12:11:33 51° NE 12:17:23 10° ESE daylight
12 Aug - 13:49:35 10° NW 13:54:41 36° WSW 14:00:10 10° S daylight
13 Aug - 02:53:51 10° SE 02:55:36 12° ESE 02:57:24 10° E visible
13 Aug - 04:33:21 10° SSW 04:37:49 88° SE 04:42:44 10° NE visible
13 Aug - 06:18:09 10° W 06:21:44 21° NNW 06:25:35 10° NNE daylight
13 Aug - 08:05:41 10° NNW 08:07:00 11° N 08:08:20 10° N daylight
13 Aug - 09:49:38 10° NNW 09:52:34 15° NNE 09:55:38 10° NE daylight
13 Aug - 11:32:06 10° NNW 11:37:13 39° NE 11:42:48 10° ESE daylight
13 Aug - 13:15:12 10° NW 13:20:35 49° WSW 13:26:26 10° S daylight
14 Aug - 03:59:16 10° SSW 04:03:40 61° ESE 04:08:28 10° NE visible
14 Aug - 05:43:21 10° W 05:47:16 26° NW 05:51:30 10° NNE daylight
14 Aug - 07:30:34 10° NNW 07:32:19 12° N 07:34:07 10° N daylight
14 Aug - 09:15:32 10° N 09:17:57 13° NNE 09:20:26 10° NE daylight
14 Aug - 10:58:00 10° NNW 11:02:51 31° NE 11:08:04 10° ESE daylight
14 Aug - 12:40:53 10° NW 12:46:27 67° WSW 12:52:29 10° SSE daylight
14 Aug - 14:26:24 10° W 14:28:50 13° WSW 14:31:20 10° SW daylight
15 Aug - 03:25:23 10° S 03:29:35 42° ESE 03:34:08 10° NE visible
15 Aug - 05:08:40 10° WSW 05:12:51 34° NW 05:17:24 10° NNE visible
15 Aug - 06:55:25 10° NW 06:57:40 13° NNW 07:00:00 10° NNE daylight
15 Aug - 08:41:23 10° N 08:43:17 12° N 08:45:15 10° NNE daylight
15 Aug - 10:23:55 10° NNW 10:28:24 26° NE 10:33:14 10° E daylight
15 Aug - 12:06:40 10° NW 12:12:16 89° SW 12:18:22 10° SSE daylight
15 Aug - 13:51:05 10° WNW 13:54:54 18° WSW 13:58:52 10° SSW daylight
